Regional Weather Roundup
Issued by NWS

Home | Current Version | Previous Version | Text Only | Print | Product List | Glossary On
Versions: 1 2 3 4 5 6 7 8 9 10 11 12 13 14 15 16 17 18 19 20 21 22 23 24 25 26 27 28 29 30 31 32 33 34 35 36 37 38 39 40 41 42 43 44 45 46 47 48 49 50
000
ASUS45 KBOU 270007
RWRCO

WEATHER ROUNDUP FOR COLORADO
NATIONAL WEATHER SERVICE DENVER/BOULDER CO
600 PM MDT SUN APR 26 2015

NOTE: "FAIR" INDICATES FEW OR NO CLOUDS BELOW 12000 FEET WITH NO
SIGNIFICANT WEATHER AND/OR OBSTRUCTIONS TO VISIBILITY.

COZ001>005-013-030-031-270100-
...NORTHWEST COLORADO...

CITY           SKY/WX    TMP DP  RH WIND       PRES   REMARKS
CRAIG          CLOUDY    48  40  73 NW20G25   29.87R
HAYDEN         CLOUDY    48  36  61 W14       29.85R
MEEKER         LGT RAIN  43  40  89 W8        29.88R
MOUNT WERNER   NOT AVBL
STEAMBOAT SPGS CLOUDY    46  35  65 SE3       29.86R
WALDEN         CLOUDY    46  30  53 E18       29.88R
$$

COZ006>008-011-270100-
...WEST CENTRAL VALLEYS...

CITY           SKY/WX    TMP DP  RH WIND       PRES   REMARKS
GRAND JUNCTION LGT RAIN  48  44  86 CALM      29.81R
MONTROSE       LGT RAIN  50  41  71 SE6       29.84R
EAGLE          PTSUNNY   52  37  58 CALM      29.84R
RIFLE          CLOUDY    49  40  71 SW7       29.84R
DELTA          NOT AVBL
NUCLA          CLOUDY    46  41  81 E3        29.86R
$$

COZ017>023-064>068-270100-
...SOUTHWEST COLORADO...

CITY           SKY/WX    TMP DP  RH WIND       PRES   REMARKS
DURANGO        CLOUDY    43  40  89 NE8       29.79R
CORTEZ         CLOUDY    52  39  61 VRB5      29.78R
PAGOSA SPRINGS CLOUDY    42  39  88 NW8       29.81S
TELLURIDE      CLOUDY    35  35  99 W6        29.89R WCI  30
WOLF CREEK PAS NOT AVBL
$$

COZ009-010-012-014-032>034-037-058>063-270100-
...CENTRAL COLORADO...

CITY           SKY/WX    TMP DP  RH WIND       PRES   REMARKS
ASPEN          LGT RAIN  43  36  76 N7        29.84R
BUENA VISTA    DRIZZLE   39  35  86 CALM      29.90S
COPPER MTN     CLOUDY    34  30  86 NE9       29.98R WCI  26
BERTHOUD PASS  HAZE      21  14  73 MISG      30.02R VSB<1/4
COTTONWOOD PAS SNOW      34  32  93 SE7       29.94R VSB<1/4 WCI  28
GUNNISON       CLOUDY    43  34  70 CALM      29.87R
KREMMLING      PTSUNNY   50  36  57 N3        29.87S
LEADVILLE      LGT SNOW  31  30  96 SW3       29.92R FOG
SALIDA         CLOUDY    39  37  93 E5        29.98R
SUNLIGHT       LGT SNOW  34  34 100 N6        29.98R VSB 3/4 WCI  29
WILKERSON PASS SNOW     N/A N/A N/A MISG      30.00R VSB<1/4
$$

COZ069>075-270100-
...SAN LUIS VALLEY/SANGRE DE CRISTO MOUNTAINS...

CITY           SKY/WX    TMP DP  RH WIND       PRES   REMARKS
ALAMOSA        LGT RAIN  38  34  85 E15       29.85R
LA VETA PASS   SNOW      30  28  93 MISG      29.91R VSB 1/4
SAGUACHE       LGT SNOW  34  32  93 S8        29.88R WCI  27
$$

COZ035-036-038>040-270100-
...NORTHERN COLORADO FRONT RANGE...

CITY           SKY/WX    TMP DP  RH WIND       PRES   REMARKS
DENVER INTL AP FOG       42  42 100 E14       29.94R VSB 3/4
DMNS CITY PARK   N/A     43  41  95 NE6G22    29.96R
AURORA         DRIZZLE   41  41 100 E12       29.95R FOG
FRONT RANGE AP DRZL/FOG  43  43 100 E8        29.96R VSB 1
ERIE MUNI ARPT RAIN      44  42  92 NE7       29.96R
BOULDER MUN AP LGT RAIN  43  43 100 N3        29.95R
CENTENNIAL     LGT RAIN  42  41  96 NE12      29.94R FOG
BROOMFIELD     LGT RAIN  43  41  93 N9        29.95R
FORT COLLINS   CLOUDY    45  41  87 E12       29.98R
LONGMONT       LGT RAIN  46  43  90 NE3       29.98R
$$

COZ041-046-047-076>085-087-088-270100-
...PIKES PEAK/PALMER DIVIDE AND SOUTHERN FOOTHILLS...

CITY           SKY/WX    TMP DP  RH WIND       PRES   REMARKS
COLO. SPRINGS  LGT RAIN  42  40  92 E16       29.92R
A. F. ACADEMY  MIX PCPN  39  39 100 VRB2      29.93R FOG
ELLICOTT       FOG      N/A N/A N/A E17       29.91R VSB 1/4
FALCON         FOG       40  39  99 E10       29.94R VSB 3/4
FORT CARSON    LGT RAIN  42  41  99 E10       29.92R FOG
LIMON          CLOUDY    41  40  96 E12       29.94R
MONUMENT HILL  CLOUDY    37  36  93 E14       29.93R FOG
TRINIDAD       LGT RAIN  43  41  93 E5        29.85R FOG
$$

COZ042>045-048>051-090-091-270100-
...NORTHEAST COLORADO...

CITY           SKY/WX    TMP DP  RH WIND       PRES   REMARKS
GREELEY ARPT   CLOUDY    43  37  81 E9        29.98R
AKRON          FOG       40  40 100 E17       29.96R VSB 1/4
BURLINGTON     CLOUDY    43  41  93 NE17      29.94R FOG
WRAY           CLOUDY   N/A N/A N/A NE13      29.97R
STERLING       CLOUDY    43  41  93 E12       29.98R
HOLYOKE        CLOUDY    45  43  93 E13       29.98S FOG
FORT MORGAN    CLOUDY    42  40  95 E14       29.97R FOG
$$

COZ086-089-092>099-270100-
...SOUTHEAST COLORADO...

CITY           SKY/WX    TMP DP  RH WIND       PRES   REMARKS
PUEBLO         HVY RAIN  45  44  97 SE13      29.92R FOG
LA JUNTA       CLOUDY    47  43  86 E17       29.89R FOG
LAMAR          CLOUDY    46  45  96 E13       29.92R FOG
SPRINGFIELD      N/A     45  44  97 NE15      29.86R
$$


USA.gov is the U.S. government's official web portal to all federal, state and local government web resources and services.